Radiation Dose at Monitoring Post of Fukushima Daini Nuclear Power Station
Date,Time,MP-1(microSv/h),MP-2(microSv/h),MP-3(microSv/h),MP-4(microSv/h),MP-5(microSv/h),MP-6(microSv/h),MP-7(microSv/h),Wind Direction,Wind Velocity(m/s),Rain
2019/08/14,00:00,0.196,0.172,0.299,0.281,0.274,0.150,0.092,west-northwest,2.0,Yes
2019/08/14,00:10,0.194,0.173,0.298,0.278,0.269,0.148,0.091,north-northwest,3.9,Yes
2019/08/14,00:20,0.193,0.174,0.297,0.276,0.269,0.146,0.092,northwest,3.9,No
2019/08/14,00:30,0.193,0.174,0.293,0.277,0.270,0.149,0.092,north-northwest,3.6,No
2019/08/14,00:40,0.196,0.174,0.297,0.279,0.271,0.148,0.091,north-northwest,4.4,No
2019/08/14,00:50,0.194,0.172,0.297,0.277,0.270,0.147,0.090,northwest,4.8,No
2019/08/14,01:00,0.193,0.174,0.294,0.276,0.268,0.146,0.091,north-northwest,5.6,No
2019/08/14,01:10,0.193,0.172,0.293,0.277,0.269,0.147,0.091,northwest,5.4,No
2019/08/14,01:20,0.194,0.172,0.296,0.279,0.269,0.148,0.091,northwest,5.9,No
2019/08/14,01:30,0.194,0.172,0.295,0.276,0.268,0.146,0.091,northwest,6.2,No
2019/08/14,01:40,0.192,0.172,0.295,0.274,0.266,0.146,0.091,northwest,6.2,No
2019/08/14,01:50,0.192,0.171,0.292,0.276,0.267,0.146,0.091,north-northwest,5.9,No
2019/08/14,02:00,0.194,0.170,0.297,0.278,0.270,0.147,0.090,north-northwest,5.2,No
2019/08/14,02:10,0.194,0.171,0.295,0.276,0.268,0.147,0.089,north-northwest,5.1,No
2019/08/14,02:20,0.193,0.172,0.294,0.273,0.266,0.146,0.091,northwest,4.5,No
2019/08/14,02:30,0.191,0.171,0.292,0.276,0.267,0.146,0.090,northwest,3.9,No
2019/08/14,02:40,0.194,0.171,0.295,0.278,0.270,0.148,0.090,north-northwest,4.4,No
2019/08/14,02:50,0.194,0.172,0.296,0.275,0.267,0.146,0.090,north-northwest,5.1,No
2019/08/14,03:00,0.192,0.172,0.292,0.274,0.266,0.146,0.091,north-northwest,4.9,No
2019/08/14,03:10,0.191,0.171,0.293,0.278,0.269,0.146,0.089,north-northwest,4.4,No
2019/08/14,03:20,0.193,0.171,0.296,0.278,0.270,0.147,0.090,north-northwest,3.6,No
2019/08/14,03:30,0.193,0.172,0.296,0.275,0.269,0.147,0.089,northwest,5.1,No
2019/08/14,03:40,0.192,0.171,0.293,0.274,0.266,0.146,0.090,north-northwest,5.2,No
2019/08/14,03:50,0.191,0.171,0.294,0.278,0.268,0.146,0.090,north-northwest,6.3,No
2019/08/14,04:00,0.194,0.171,0.296,0.277,0.270,0.146,0.089,northwest,6.4,No
2019/08/14,04:10,0.194,0.172,0.295,0.275,0.268,0.146,0.089,north-northwest,6.6,No
2019/08/14,04:20,0.192,0.172,0.293,0.275,0.265,0.146,0.090,north-northwest,5.9,No
2019/08/14,04:30,0.192,0.170,0.295,0.278,0.271,0.145,0.090,north-northwest,6.5,No
2019/08/14,04:40,0.193,0.171,0.295,0.276,0.269,0.146,0.090,north-northwest,7.3,No
2019/08/14,04:50,0.193,0.172,0.294,0.274,0.267,0.147,0.090,north-northwest,6.2,No
2019/08/14,05:00,0.192,0.171,0.293,0.274,0.268,0.147,0.091,northwest,7.0,No
2019/08/14,05:10,0.190,0.171,0.295,0.277,0.270,0.145,0.089,north-northwest,7.0,No
2019/08/14,05:20,0.194,0.172,0.295,0.275,0.268,0.147,0.088,north-northwest,7.1,No
2019/08/14,05:30,0.193,0.172,0.291,0.274,0.267,0.147,0.091,northwest,6.5,No
2019/08/14,05:40,0.193,0.170,0.297,0.276,0.268,0.147,0.090,northwest,6.6,No
2019/08/14,05:50,0.192,0.171,0.297,0.276,0.270,0.145,0.089,northwest,6.5,No
2019/08/14,06:00,0.194,0.172,0.294,0.274,0.268,0.147,0.089,northwest,6.2,No
2019/08/14,06:10,0.193,0.171,0.294,0.275,0.266,0.146,0.090,north-northwest,6.3,No
2019/08/14,06:20,0.191,0.171,0.296,0.278,0.268,0.145,0.090,north-northwest,6.3,No
2019/08/14,06:30,0.194,0.172,0.294,0.276,0.270,0.147,0.090,north-northwest,5.1,No
2019/08/14,06:40,0.194,0.172,0.291,0.274,0.268,0.148,0.089,north-northwest,5.2,No
2019/08/14,06:50,0.193,0.171,0.297,0.276,0.266,0.146,0.089,north-northwest,4.9,No
2019/08/14,07:00,0.191,0.172,0.297,0.279,0.270,0.146,0.090,north-northwest,5.3,No
2019/08/14,07:10,0.195,0.173,0.293,0.275,0.270,0.146,0.089,north-northwest,5.4,No
2019/08/14,07:20,0.195,0.171,0.294,0.273,0.268,0.147,0.090,north-northwest,5.1,No
2019/08/14,07:30,0.192,0.171,0.298,0.277,0.267,0.147,0.089,north-northwest,5.6,No
2019/08/14,07:40,0.190,0.173,0.294,0.278,0.268,0.147,0.090,northwest,5.4,No
2019/08/14,07:50,0.193,0.173,0.294,0.276,0.270,0.146,0.090,north-northwest,5.1,No
2019/08/14,08:00,0.194,0.171,0.295,0.275,0.268,0.146,0.090,north-northwest,4.4,No
2019/08/14,08:10,0.193,0.171,0.297,0.277,0.267,0.147,0.089,north-northwest,4.8,No
2019/08/14,08:20,0.193,0.172,0.296,0.278,0.268,0.146,0.091,north-northwest,4.6,No
2019/08/14,08:30,0.193,0.173,0.292,0.275,0.270,0.146,0.091,north-northwest,4.3,No
2019/08/14,08:40,0.195,0.172,0.295,0.274,0.270,0.146,0.090,north-northwest,4.3,No
2019/08/14,08:50,0.193,0.171,0.297,0.276,0.268,0.147,0.091,north-northwest,3.5,No
2019/08/14,09:00,0.193,0.172,0.294,0.280,0.267,0.147,0.089,north-northwest,4.5,No
2019/08/14,09:10,0.191,0.172,0.293,0.277,0.267,0.148,0.089,north-northwest,4.5,No
2019/08/14,09:20,0.195,0.172,0.294,0.276,0.271,0.147,0.090,north-northwest,4.6,No
2019/08/14,09:30,0.194,0.172,0.296,0.275,0.271,0.146,0.091,north-northwest,4.2,No
2019/08/14,09:40,0.193,0.171,0.297,0.278,0.268,0.146,0.090,north-northwest,4.1,No
2019/08/14,09:50,0.191,0.172,0.293,0.278,0.268,0.146,0.091,north-northwest,3.4,Yes
2019/08/14,10:00,0.192,0.174,0.293,0.276,0.266,0.148,0.090,north-northwest,3.0,No
2019/08/14,10:10,0.196,0.172,0.298,0.274,0.270,0.147,0.090,north-northwest,3.8,No
2019/08/14,10:20,0.193,0.170,0.297,0.275,0.272,0.147,0.090,north-northwest,3.9,No
2019/08/14,10:30,0.193,0.169,0.293,0.279,0.269,0.146,0.090,north-northwest,3.8,No
2019/08/14,10:40,0.192,0.171,0.293,0.278,0.269,0.147,0.090,northwest,3.6,No
2019/08/14,10:50,0.193,0.172,0.295,0.276,0.268,0.146,0.090,north-northwest,4.3,No
2019/08/14,11:00,0.195,0.171,0.298,0.277,0.268,0.148,0.091,north-northwest,4.3,No
2019/08/14,11:10,0.193,0.172,0.295,0.275,0.267,0.148,0.091,north-northwest,3.8,No
2019/08/14,11:20,0.193,0.172,0.295,0.277,0.267,0.149,0.090,north-northwest,3.4,No
2019/08/14,11:30,0.192,0.171,0.294,0.280,0.268,0.147,0.090,north-northwest,2.7,No
2019/08/14,11:40,0.192,0.170,0.294,0.278,0.271,0.146,0.090,north-northwest,3.4,No
2019/08/14,11:50,0.195,0.173,0.298,0.277,0.272,0.146,0.091,northwest,2.7,No
2019/08/14,12:00,0.195,0.173,0.298,0.275,0.271,0.147,0.091,north-northwest,3.0,No
2019/08/14,12:10,0.194,0.173,0.296,0.275,0.270,0.148,0.090,north-northwest,2.5,No
2019/08/14,12:20,0.193,0.171,0.293,0.274,0.269,0.147,0.090,north-northwest,3.1,No
2019/08/14,12:30,0.192,0.171,0.293,0.274,0.270,0.148,0.090,north-northeast,1.7,No
2019/08/14,12:40,0.191,0.171,0.293,0.275,0.268,0.148,0.090,north,2.9,No
2019/08/14,12:50,0.192,0.171,0.295,0.280,0.269,0.148,0.089,north-northwest,2.7,No
2019/08/14,13:00,0.195,0.171,0.298,0.280,0.267,0.147,0.090,north,2.7,No
2019/08/14,13:10,0.195,0.171,0.297,0.277,0.268,0.147,0.090,north-northwest,2.5,No
2019/08/14,13:20,0.193,0.171,0.295,0.276,0.269,0.147,0.090,north,2.7,No
2019/08/14,13:30,0.193,0.171,0.295,0.276,0.269,0.147,0.090,north,2.4,No
2019/08/14,13:40,0.192,0.171,0.294,0.277,0.268,0.148,0.090,north,2.3,No
2019/08/14,13:50,0.192,0.171,0.294,0.275,0.270,0.149,0.090,north,2.3,No
2019/08/14,14:00,0.191,0.171,0.294,0.276,0.270,0.148,0.090,north-northeast,2.8,No
2019/08/14,14:10,0.193,0.172,0.294,0.276,0.269,0.149,0.090,north-northeast,3.1,No
2019/08/14,14:20,0.192,0.171,0.294,0.276,0.269,0.148,0.090,north-northeast,3.3,No
2019/08/14,14:30,0.194,0.171,0.294,0.277,0.269,0.148,0.090,north-northeast,3.1,No
2019/08/14,14:40,0.196,0.172,0.296,0.275,0.269,0.147,0.090,north-northeast,3.2,No
2019/08/14,14:50,0.195,0.173,0.299,0.278,0.269,0.148,0.090,north-northeast,2.6,No
2019/08/14,15:00,0.194,0.175,0.298,0.281,0.268,0.149,0.089,north-northeast,3.3,No
2019/08/14,15:10,0.193,0.173,0.297,0.278,0.273,0.150,0.092,north-northeast,3.4,No
2019/08/14,15:20,0.193,0.172,0.296,0.277,0.273,0.148,0.092,north,3.5,No
2019/08/14,15:30,0.195,0.172,0.293,0.276,0.271,0.148,0.091,north,2.9,No
2019/08/14,15:40,0.196,0.172,0.296,0.275,0.270,0.147,0.091,north,3.3,No
2019/08/14,15:50,0.194,0.174,0.299,0.280,0.269,0.148,0.090,north,2.4,No
2019/08/14,16:00,0.193,0.174,0.298,0.280,0.268,0.147,0.090,north,1.6,No
2019/08/14,16:10,0.193,0.173,0.296,0.278,0.268,0.147,0.090,north-northeast,2.2,No
2019/08/14,16:20,0.194,0.171,0.293,0.276,0.268,0.148,0.090,north,2.5,No
2019/08/14,16:30,0.195,0.172,0.293,0.276,0.273,0.149,0.091,north,2.3,No
2019/08/14,16:40,0.195,0.173,0.297,0.278,0.272,0.148,0.091,north-northeast,2.2,No
2019/08/14,16:50,0.193,0.174,0.299,0.280,0.270,0.148,0.091,northeast,2.7,No
2019/08/14,17:00,0.192,0.173,0.297,0.279,0.269,0.147,0.091,north-northeast,3.0,No
2019/08/14,17:10,0.193,0.172,0.294,0.277,0.268,0.147,0.090,north-northeast,1.8,No
2019/08/14,17:20,0.196,0.171,0.293,0.276,0.269,0.148,0.090,north,1.4,No
2019/08/14,17:30,0.195,0.173,0.295,0.276,0.272,0.148,0.091,north-northeast,1.2,No
2019/08/14,17:40,0.193,0.174,0.298,0.281,0.273,0.148,0.091,north-northeast,1.0,No
2019/08/14,17:50,0.192,0.172,0.297,0.278,0.270,0.147,0.090,north-northeast,1.7,No
2019/08/14,18:00,0.195,0.171,0.295,0.277,0.269,0.147,0.090,north-northeast,1.4,Yes
2019/08/14,18:10,0.195,0.171,0.294,0.275,0.268,0.147,0.091,north,1.1,No
2019/08/14,18:20,0.194,0.173,0.298,0.277,0.275,0.148,0.091,north,1.4,No
2019/08/14,18:30,0.191,0.173,0.298,0.279,0.272,0.148,0.091,north-northeast,0.8,No
2019/08/14,18:40,0.194,0.172,0.296,0.278,0.269,0.147,0.090,east-northeast,0.9,No
2019/08/14,18:50,0.195,0.171,0.294,0.276,0.267,0.147,0.091,east-northeast,1.4,Yes
2019/08/14,19:00,0.195,0.174,0.298,0.279,0.270,0.148,0.092,-,CALM,No
2019/08/14,19:10,0.193,0.173,0.298,0.280,0.272,0.149,0.091,-,CALM,Yes
2019/08/14,19:20,0.194,0.172,0.296,0.278,0.271,0.148,0.091,-,CALM,No
2019/08/14,19:30,0.196,0.172,0.293,0.275,0.268,0.146,0.090,-,CALM,No
2019/08/14,19:40,0.195,0.173,0.298,0.277,0.270,0.147,0.092,-,CALM,No
2019/08/14,19:50,0.192,0.173,0.298,0.280,0.273,0.148,0.092,-,CALM,Yes
2019/08/14,20:00,0.192,0.172,0.297,0.277,0.270,0.148,0.090,east-southeast,0.7,No
2019/08/14,20:10,0.194,0.172,0.294,0.277,0.268,0.148,0.090,-,CALM,Yes
2019/08/14,20:20,0.194,0.172,0.298,0.277,0.270,0.146,0.090,-,CALM,No
2019/08/14,20:30,0.194,0.173,0.300,0.279,0.272,0.148,0.091,-,CALM,Yes
2019/08/14,20:40,0.193,0.172,0.295,0.278,0.270,0.149,0.091,-,CALM,No
2019/08/14,20:50,0.193,0.173,0.294,0.276,0.270,0.147,0.090,southeast,0.8,No
2019/08/14,21:00,0.195,0.174,0.297,0.277,0.268,0.147,0.090,southeast,0.7,Yes
2019/08/14,21:10,0.194,0.173,0.299,0.280,0.273,0.148,0.092,south-southwest,0.7,Yes
2019/08/14,21:20,0.194,0.172,0.296,0.279,0.273,0.149,0.092,south-southeast,1.4,No
2019/08/14,21:30,0.192,0.172,0.295,0.276,0.268,0.148,0.090,southeast,1.5,No
2019/08/14,21:40,0.195,0.174,0.296,0.275,0.269,0.147,0.090,south-southeast,2.1,No
2019/08/14,21:50,0.194,0.172,0.299,0.280,0.272,0.148,0.092,south-southeast,2.2,No
2019/08/14,22:00,0.192,0.171,0.296,0.277,0.272,0.149,0.091,south,2.8,No
2019/08/14,22:10,0.193,0.174,0.293,0.274,0.269,0.148,0.090,south,3.7,No
2019/08/14,22:20,0.195,0.172,0.297,0.275,0.268,0.147,0.090,south-southeast,2.8,No
2019/08/14,22:30,0.194,0.172,0.298,0.281,0.272,0.147,0.091,south-southeast,2.2,No
2019/08/14,22:40,0.192,0.172,0.296,0.278,0.271,0.148,0.091,south,1.7,No
2019/08/14,22:50,0.192,0.173,0.294,0.277,0.270,0.148,0.090,south,2.8,No
2019/08/14,23:00,0.196,0.172,0.297,0.275,0.268,0.148,0.090,south,3.1,No
2019/08/14,23:10,0.194,0.171,0.297,0.280,0.271,0.147,0.091,south,3.3,No
2019/08/14,23:20,0.194,0.173,0.295,0.279,0.272,0.148,0.091,south,2.9,No
2019/08/14,23:30,0.192,0.173,0.294,0.276,0.268,0.148,0.091,south,2.7,No
2019/08/14,23:40,0.194,0.172,0.296,0.276,0.268,0.147,0.090,south-southeast,3.0,No
2019/08/14,23:50,0.194,0.171,0.298,0.279,0.271,0.147,0.090,south-southeast,3.5,No
